When you browse on this site, cookies collect data to enhance your experience and personalize the content and advertising you see.
Visit our Privacy Policy to learn more. By continuing to use the site, you agree to this use of cookies and data.
  • en Suisse
  • Liste des pays
  • À 7 jours
  • Température de l'eau
  • Carte satellitaire
  • Carte météo
  • Widgets météo
  • user-avatar
    Se connecter

    Météo par heure à Dzhalalabad

    Ce jour, 16 Juin, Dimanche

    Heure Température Précipitation Vent Pression Humidité
    00:00 +21°C° 0 mm 3 m/s 693 mmHg 44%
    01:00 +20°C° 0 mm 3 m/s 692 mmHg 43%
    02:00 +20°C° 0 mm 4 m/s 692 mmHg 43%
    03:00 +20°C° 0 mm 3 m/s 692 mmHg 42%
    04:00 +20°C° 0 mm 3 m/s 692 mmHg 41%
    05:00 +19°C° 0 mm 3 m/s 693 mmHg 39%
    06:00 +22°C° 0 mm 3 m/s 693 mmHg 35%
    07:00 +25°C° 0 mm 2 m/s 693 mmHg 32%
    08:00 +27°C° 0 mm 2 m/s 693 mmHg 28%
    09:00 +28°C° 0 mm 3 m/s 693 mmHg 27%
    10:00 +30°C° 0 mm 3 m/s 693 mmHg 25%
    11:00 +32°C° 0 mm 4 m/s 693 mmHg 23%
    12:00 +32°C° 0 mm 4 m/s 693 mmHg 22%
    13:00 +33°C° 0 mm 4 m/s 692 mmHg 21%
    14:00 +34°C° 0 mm 4 m/s 692 mmHg 20%
    15:00 +34°C° 0 mm 3 m/s 692 mmHg 20%
    16:00 +34°C° 0 mm 3 m/s 692 mmHg 20%
    17:00 +34°C° 0 mm 3 m/s 692 mmHg 20%
    18:00 +31°C° 0 mm 3 m/s 692 mmHg 23%
    19:00 +29°C° 0 mm 3 m/s 692 mmHg 26%
    20:00 +27°C° 0 mm 3 m/s 692 mmHg 29%
    21:00 +26°C° 0 mm 3 m/s 692 mmHg 30%
    22:00 +25°C° 0 mm 2 m/s 692 mmHg 31%
    23:00 +24°C° 0 mm 2 m/s 692 mmHg 31%

    Demain, 17 Juin, Lundi

    Heure Température Précipitation Vent Pression Humidité
    00:00 +24°C° 0 mm 2 m/s 692 mmHg 32%
    01:00 +23°C° 0 mm 2 m/s 691 mmHg 33%
    02:00 +23°C° 0 mm 2 m/s 691 mmHg 34%
    03:00 +21°C° 0 mm 2 m/s 691 mmHg 35%
    04:00 +21°C° 0 mm 2 m/s 691 mmHg 36%
    05:00 +20°C° 0 mm 2 m/s 691 mmHg 37%
    06:00 +23°C° 0 mm 2 m/s 691 mmHg 33%
    07:00 +25°C° 0 mm 1 m/s 691 mmHg 29%
    08:00 +27°C° 0 mm 1 m/s 692 mmHg 25%
    09:00 +28°C° 0 mm 2 m/s 692 mmHg 23%
    10:00 +29°C° 0 mm 2 m/s 692 mmHg 22%
    11:00 +31°C° 0 mm 2 m/s 691 mmHg 20%
    12:00 +31°C° 0 mm 2 m/s 691 mmHg 20%
    13:00 +32°C° 0 mm 2 m/s 691 mmHg 19%
    14:00 +34°C° 0 mm 2 m/s 691 mmHg 19%
    15:00 +34°C° 0 mm 2 m/s 691 mmHg 18%
    16:00 +34°C° 0 mm 2 m/s 691 mmHg 18%
    17:00 +34°C° 0 mm 2 m/s 691 mmHg 17%
    18:00 +31°C° 0 mm 2 m/s 691 mmHg 20%
    19:00 +29°C° 0 mm 2 m/s 691 mmHg 23%
    20:00 +27°C° 0 mm 1 m/s 691 mmHg 26%
    21:00 +26°C° 0 mm 2 m/s 691 mmHg 29%
    22:00 +25°C° 0 mm 2 m/s 691 mmHg 31%
    23:00 +24°C° 0 mm 2 m/s 690 mmHg 33%

    Après-demain, 18 Juin, Mardi

    Heure Température Précipitation Vent Pression Humidité
    00:00 +23°C° 0 mm 2 m/s 690 mmHg 34%
    01:00 +23°C° 0 mm 2 m/s 690 mmHg 34%
    02:00 +21°C° 0 mm 2 m/s 690 mmHg 34%
    03:00 +22°C° 0 mm 1 m/s 690 mmHg 34%
    04:00 +22°C° 0 mm 1 m/s 689 mmHg 35%
    05:00 +21°C° 0 mm 1 m/s 689 mmHg 35%
    06:00 +23°C° 0 mm 1 m/s 690 mmHg 31%
    07:00 +25°C° 0 mm 1 m/s 690 mmHg 28%
    08:00 +27°C° 0 mm 1 m/s 690 mmHg 25%
    09:00 +28°C° 0 mm 1 m/s 690 mmHg 23%
    10:00 +30°C° 0 mm 2 m/s 690 mmHg 22%
    11:00 +31°C° 0 mm 2 m/s 690 mmHg 20%
    12:00 +32°C° 0 mm 2 m/s 690 mmHg 19%
    13:00 +32°C° 0 mm 2 m/s 690 mmHg 18%
    14:00 +34°C° 0 mm 3 m/s 690 mmHg 18%
    15:00 +34°C° 0 mm 3 m/s 690 mmHg 18%
    16:00 +34°C° 0 mm 3 m/s 690 mmHg 18%
    17:00 +34°C° 0 mm 3 m/s 689 mmHg 18%
    18:00 +31°C° 0 mm 3 m/s 690 mmHg 21%
    19:00 +30°C° 0 mm 3 m/s 690 mmHg 24%
    20:00 +28°C° 0 mm 3 m/s 690 mmHg 27%
    21:00 +27°C° 0 mm 3 m/s 690 mmHg 28%
    22:00 +26°C° 0 mm 2 m/s 690 mmHg 29%
    23:00 +25°C° 0 mm 2 m/s 690 mmHg 30%

    19 Juin, Mercredi

    Heure Température Précipitation Vent Pression Humidité
    00:00 +25°C° 0 mm 2 m/s 690 mmHg 31%
    01:00 +24°C° 0 mm 2 m/s 690 mmHg 31%
    02:00 +24°C° 0 mm 2 m/s 690 mmHg 32%
    03:00 +24°C° 0 mm 2 m/s 690 mmHg 32%
    04:00 +24°C° 0 mm 2 m/s 690 mmHg 32%
    05:00 +23°C° 0 mm 2 m/s 690 mmHg 32%
    06:00 +25°C° 0 mm 2 m/s 690 mmHg 30%
    07:00 +27°C° 0 mm 2 m/s 690 mmHg 28%
    08:00 +28°C° 0 mm 2 m/s 691 mmHg 26%
    09:00 +30°C° 0 mm 2 m/s 691 mmHg 24%
    10:00 +31°C° 0 mm 2 m/s 690 mmHg 22%
    11:00 +32°C° 0 mm 2 m/s 690 mmHg 20%
    12:00 +34°C° 0 mm 3 m/s 690 mmHg 19%
    13:00 +34°C° 0 mm 3 m/s 690 mmHg 18%
    14:00 +35°C° 0 mm 3 m/s 690 mmHg 18%
    15:00 +35°C° 0 mm 4 m/s 690 mmHg 18%
    16:00 +35°C° 0 mm 4 m/s 690 mmHg 17%
    17:00 +35°C° 0 mm 5 m/s 690 mmHg 17%
    18:00 +33°C° 0 mm 4 m/s 690 mmHg 20%
    19:00 +30°C° 0 mm 4 m/s 690 mmHg 23%
    20:00 +28°C° 0 mm 3 m/s 691 mmHg 25%
    21:00 +27°C° 0 mm 3 m/s 691 mmHg 27%
    22:00 +26°C° 0 mm 3 m/s 691 mmHg 28%
    23:00 +25°C° 0 mm 2 m/s 691 mmHg 29%

    20 Juin, Jeudi

    Heure Température Précipitation Vent Pression Humidité
    00:00 +24°C° 0 mm 2 m/s 690 mmHg 29%
    01:00 +24°C° 0 mm 2 m/s 690 mmHg 30%
    02:00 +23°C° 0 mm 2 m/s 690 mmHg 30%
    03:00 +23°C° 0 mm 2 m/s 690 mmHg 31%
    04:00 +21°C° 0 mm 2 m/s 690 mmHg 31%
    05:00 +21°C° 0 mm 2 m/s 690 mmHg 31%
    06:00 +24°C° 0 mm 2 m/s 690 mmHg 28%
    07:00 +26°C° 0 mm 1 m/s 691 mmHg 25%
    08:00 +29°C° 0 mm 1 m/s 691 mmHg 22%
    09:00 +30°C° 0 mm 1 m/s 691 mmHg 20%
    10:00 +31°C° 0 mm 1 m/s 691 mmHg 19%
    11:00 +32°C° 0 mm 2 m/s 691 mmHg 17%
    12:00 +34°C° 0 mm 2 m/s 690 mmHg 17%
    13:00 +34°C° 0 mm 2 m/s 690 mmHg 17%
    14:00 +35°C° 0 mm 2 m/s 690 mmHg 16%
    15:00 +35°C° 0 mm 3 m/s 690 mmHg 16%
    16:00 +35°C° 0 mm 3 m/s 690 mmHg 16%
    17:00 +35°C° 0 mm 3 m/s 690 mmHg 16%
    18:00 +33°C° 0 mm 3 m/s 690 mmHg 19%
    19:00 +30°C° 0 mm 3 m/s 691 mmHg 22%
    20:00 +28°C° 0 mm 2 m/s 691 mmHg 25%
    21:00 +27°C° 0 mm 2 m/s 691 mmHg 26%
    22:00 +26°C° 0 mm 2 m/s 691 mmHg 27%
    23:00 +25°C° 0 mm 1 m/s 691 mmHg 28%

    21 Juin, Vendredi

    Heure Température Précipitation Vent Pression Humidité
    00:00 +25°C° 0 mm 2 m/s 690 mmHg 28%
    01:00 +24°C° 0 mm 2 m/s 690 mmHg 28%
    02:00 +24°C° 0 mm 2 m/s 690 mmHg 28%
    03:00 +23°C° 0 mm 2 m/s 690 mmHg 29%
    04:00 +23°C° 0 mm 2 m/s 690 mmHg 29%
    05:00 +23°C° 0 mm 2 m/s 690 mmHg 30%
    06:00 +25°C° 0 mm 1 m/s 690 mmHg 27%
    07:00 +27°C° 0 mm 1 m/s 691 mmHg 24%
    08:00 +29°C° 0 mm 1 m/s 691 mmHg 21%
    09:00 +30°C° 0 mm 1 m/s 691 mmHg 20%
    10:00 +32°C° 0 mm 1 m/s 691 mmHg 18%
    11:00 +33°C° 0 mm 1 m/s 691 mmHg 17%
    12:00 +34°C° 0 mm 1 m/s 691 mmHg 16%
    13:00 +36°C° 0 mm 2 m/s 691 mmHg 16%
    14:00 +36°C° 0 mm 2 m/s 691 mmHg 15%
    15:00 +36°C° 0 mm 2 m/s 691 mmHg 15%
    16:00 +36°C° 0 mm 2 m/s 691 mmHg 15%
    17:00 +36°C° 0 mm 2 m/s 691 mmHg 14%
    18:00 +34°C° 0 mm 2 m/s 691 mmHg 17%
    19:00 +31°C° 0 mm 2 m/s 690 mmHg 20%
    20:00 +29°C° 0 mm 2 m/s 690 mmHg 23%
    21:00 +28°C° 0 mm 2 m/s 690 mmHg 24%
    22:00 +27°C° 0 mm 2 m/s 690 mmHg 26%
    23:00 +26°C° 0 mm 2 m/s 690 mmHg 27%
    Voir plus